Location: Grantsboro
(35.1404°N, 76.8424°W)
Time: 06:15:54
(UTC+00:00)

STARLINK-79 - Pass Details

Date: 18 January 2020
Orbit: 528 x 531 km, 53.0° (Epoch: 24 February)

Event Time Altitude Azimuth Distance (km) Brightness Sun altitude
Exits shadow 11:03:23 - 224° (SW) 2,145 6.3 -14.5°
Reaches altitude 10° 11:04:19 10° 225° (SW) 1,766 5.9 -14.3°
Maximum altitude 11:08:20 90° 344° (NNW) 533 3.5 -13.5°
Drops below altitude 10° 11:12:22 10° 46° (NE) 1,777 6.6 -12.7°
Sets 11:14:36 0° 46° (NE) 2,671 7.5 -12.3°
